FW4653 Weather Reports


Display with metric or nautical units.
time (UTC)temp
F
wind
direction
speed
MPH
gust
MPH
rain 1hr
in
rain 24hr
in
rain mn
in
humidity
%
barometer
mb
20230206165505 64 184 9.0 17.0 0.00 0.00 0.00 76 1015.1
20230206165025 64 214 6.0 18.0 0.00 0.00 0.00 76 1015.3
20230206164507 65 192 6.0 15.0 0.00 0.00 0.00 77 1015.4
20230206164043 64 162 8.0 16.0 0.00 0.00 0.00 78 1015.4
20230206163559 63 183 7.0 16.0 0.00 0.00 0.00 79 1015.4
20230206163503 63 190 5.0 13.0 0.00 0.00 0.00 79 1015.4
20230206163037 63 214 7.0 15.0 0.00 0.00 0.00 80 1015.5
20230206162557 62 157 8.0 17.0 0.00 0.00 0.00 80 1015.5
20230206162016 62 173 6.0 17.0 0.00 0.00 0.00 81 1015.5
20230206161603 62 155 6.0 14.0 0.00 0.00 0.00 81 1015.5
20230206161011 62 175 7.0 14.0 0.00 0.00 0.00 82 1015.7
20230206160549 61 186 7.0 16.0 0.00 0.00 0.00 83 1015.8
20230206160011 61 196 6.0 16.0 0.00 0.00 0.00 83 1015.8
20230206155544 61 201 8.0 14.0 0.00 0.00 0.00 84 1015.6
20230206155016 61 218 6.0 14.0 0.00 0.00 0.00 85 1015.8
20230206154605 60 172 6.0 13.0 0.00 0.00 0.00 85 1015.8
20230206154054 60 184 6.0 12.0 0.00 0.00 0.00 85 1015.9
20230206153532 60 217 4.0 14.0 0.00 0.00 0.00 86 1016.0
20230206153051 60 225 7.0 14.0 0.00 0.00 0.00 86 1016.0
20230206152533 60 232 5.0 11.0 0.00 0.00 0.00 87 1016.0
20230206152049 59 240 6.0 12.0 0.00 0.00 0.00 87 1016.1
20230206151532 59 180 7.0 12.0 0.00 0.00 0.00 87 1016.1
20230206151047 59 186 6.0 15.0 0.00 0.00 0.00 87 1016.1
20230206150522 59 205 6.0 15.0 0.00 0.00 0.00 88 1015.9
20230206150052 59 180 7.0 13.0 0.00 0.00 0.00 88 1016.0
20230206145516 59 184 5.0 16.0 0.00 0.00 0.00 89 1015.9
20230206145039 58 198 7.0 16.0 0.00 0.00 0.00 89 1015.9
20230206144515 58 238 4.0 10.0 0.00 0.00 0.00 90 1016.0
20230206144036 58 189 3.0 10.0 0.00 0.00 0.00 90 1016.0
20230206143553 58 188 6.0 14.0 0.00 0.00 0.00 90 1015.9
20230206143039 57 199 5.0 14.0 0.00 0.00 0.00 91 1015.9
20230206142547 57 203 5.0 12.0 0.00 0.00 0.00 91 1016.0
20230206142030 57 188 7.0 18.0 0.00 0.00 0.00 91 1015.6
20230206141604 57 178 9.0 18.0 0.00 0.00 0.00 91 1015.4
20230206141040 57 198 8.0 18.0 0.00 0.00 0.00 91 1015.5
20230206140511 56 176 9.0 15.0 0.00 0.00 0.00 92 1015.5
20230206140059 56 207 6.0 16.0 0.00 0.00 0.00 92 1015.6
20230206135504 56 174 6.0 11.0 0.00 0.00 0.00 92 1015.7
20230206135025 56 148 5.0 11.0 0.00 0.00 0.00 92 1015.8
20230206134600 56 176 5.0 11.0 0.00 0.00 0.00 92 1015.7
20230206134502 56 196 7.0 11.0 0.00 0.00 0.00 92 1015.7
20230206134024 55 144 5.0 10.0 0.00 0.00 0.00 92 1015.7
20230206133559 55 169 7.0 13.0 0.00 0.00 0.00 92 1015.9
20230206133504 55 211 6.0 13.0 0.00 0.00 0.00 92 1015.9
20230206133020 55 157 8.0 16.0 0.00 0.00 0.00 92 1015.9
20230206132536 55 195 6.0 16.0 0.00 0.00 0.00 92 1016.0
20230206132014 55 173 6.0 16.0 0.00 0.00 0.00 92 1016.1
20230206131530 55 196 6.0 16.0 0.00 0.00 0.00 92 1016.0
20230206131008 55 176 5.0 12.0 0.00 0.00 0.00 92 1015.8
20230206130527 55 188 6.0 12.0 0.00 0.00 0.00 91 1015.9
20230206130106 54 130 7.0 17.0 0.00 0.00 0.00 91 1015.9
20230206130004 54 172 7.0 17.0 0.00 0.00 0.00 91 1015.9
20230206125527 54 182 7.0 17.0 0.00 0.00 0.00 91 1015.8
20230206125056 54 188 5.0 12.0 0.00 0.00 0.00 91 1015.7
20230206124543 53 178 6.0 12.0 0.00 0.00 0.00 91 1015.8
20230206124101 53 180 5.0 10.0 0.00 0.00 0.00 90 1015.6
20230206123540 53 141 5.0 10.0 0.00 0.00 0.00 90 1015.4
20230206123055 53 178 4.0 10.0 0.00 0.00 0.00 90 1015.5
20230206122540 53 196 5.0 10.0 0.00 0.00 0.00 90 1015.7
20230206122050 53 160 5.0 10.0 0.00 0.00 0.00 90 1015.6
20230206121535 53 175 5.0 10.0 0.00 0.00 0.00 90 1015.6
20230206121044 53 201 5.0 10.0 0.00 0.00 0.00 90 1015.6
20230206120527 53 183 5.0 9.0 0.00 0.00 0.00 90 1015.6
20230206120043 53 178 5.0 11.0 0.00 0.00 0.00 90 1015.7
20230206115522 53 206 5.0 8.0 0.00 0.00 0.00 89 1015.5
20230206115040 53 162 3.0 9.0 0.00 0.00 0.00 90 1015.5
20230206114514 53 153 3.0 8.0 0.00 0.00 0.00 89 1015.6
20230206114031 53 188 3.0 7.0 0.00 0.00 0.00 89 1015.6
20230206113510 53 174 3.0 6.0 0.00 0.00 0.00 89 1015.7
20230206113032 53 191 2.0 7.0 0.00 0.00 0.00 89 1015.7
20230206112544 53 207 4.0 10.0 0.00 0.00 0.00 89 1015.6
20230206112028 53 196 4.0 10.0 0.00 0.00 0.00 89 1015.6
20230206111542 53 180 5.0 8.0 0.00 0.00 0.00 89 1015.6
20230206111020 53 178 3.0 8.0 0.00 0.00 0.00 89 1015.7
20230206110541 53 181 5.0 8.0 0.00 0.00 0.00 89 1015.7
20230206110020 53 148 4.0 10.0 0.00 0.00 0.00 89 1015.7
20230206105543 53 185 4.0 11.0 0.00 0.00 0.00 89 1015.7
20230206105016 53 196 5.0 11.0 0.00 0.00 0.00 89 1015.8
20230206104538 53 159 4.0 8.0 0.00 0.00 0.00 89 1015.8
20230206104020 53 194 4.0 10.0 0.00 0.00 0.00 89 1015.8
20230206103540 53 167 4.0 10.0 0.00 0.00 0.00 89 1015.7
20230206103033 53 187 3.0 7.0 0.00 0.00 0.00 88 1015.9
20230206102553 53 182 4.0 7.0 0.00 0.00 0.00 88 1016.1
20230206102030 53 205 3.0 6.0 0.00 0.00 0.00 88 1016.1
20230206101553 53 176 2.0 5.0 0.00 0.00 0.00 88 1016.2
20230206101032 53 182 2.0 5.0 0.00 0.00 0.00 88 1016.3
20230206100553 53 179 3.0 5.0 0.00 0.00 0.00 87 1016.4
20230206100033 53 184 2.0 7.0 0.00 0.00 0.00 87 1016.4
20230206095546 54 193 3.0 7.0 0.00 0.00 0.00 87 1016.4
20230206095031 54 184 3.0 7.0 0.00 0.00 0.00 86 1016.5
20230206094552 54 175 4.0 9.0 0.00 0.00 0.00 87 1016.4
20230206094030 54 205 4.0 9.0 0.00 0.00 0.00 87 1016.4
20230206093546 54 144 5.0 9.0 0.00 0.00 0.00 87 1016.3
20230206093033 54 155 5.0 9.0 0.00 0.00 0.00 87 1016.4
20230206092542 54 163 5.0 11.0 0.00 0.00 0.00 87 1016.4
20230206092023 54 171 5.0 11.0 0.00 0.00 0.00 87 1016.4
20230206091540 54 184 4.0 9.0 0.00 0.00 0.00 86 1016.4
20230206091017 54 192 4.0 9.0 0.00 0.00 0.00 86 1016.3
20230206090541 54 184 3.0 7.0 0.00 0.00 0.00 86 1016.4
20230206090012 54 175 2.0 7.0 0.00 0.00 0.00 86 1016.4
20230206085532 54 207 2.0 5.0 0.00 0.00 0.00 86 1016.5
20230206085010 54 184 2.0 7.0 0.00 0.00 0.00 86 1016.5
20230206084532 54 203 2.0 7.0 0.00 0.00 0.00 85 1016.7
20230206084004 54 198 3.0 7.0 0.00 0.00 0.00 86 1016.7
20230206083519 54 136 3.0 7.0 0.00 0.00 0.00 86 1016.7
20230206083040 54 172 3.0 8.0 0.00 0.00 0.00 86 1016.8
20230206082520 54 197 4.0 8.0 0.00 0.00 0.00 86 1016.8
20230206082037 54 144 3.0 8.0 0.00 0.00 0.00 86 1016.8
20230206081516 54 178 4.0 8.0 0.00 0.00 0.00 86 1016.9
20230206081034 54 166 3.0 6.0 0.00 0.00 0.00 86 1016.9
20230206080511 54 177 3.0 8.0 0.00 0.00 0.00 86 1016.8
20230206080035 54 170 3.0 7.0 0.00 0.00 0.00 86 1016.9
20230206075550 54 190 3.0 5.0 0.00 0.00 0.00 86 1017.1
20230206075029 54 138 2.0 6.0 0.00 0.00 0.00 86 1017.1
20230206074558 54 194 2.0 4.0 0.00 0.00 0.00 86 1017.2
20230206074028 54 200 1.0 4.0 0.00 0.00 0.00 86 1017.3
20230206073547 54 213 1.0 3.0 0.00 0.00 0.00 85 1017.4
20230206073022 54 194 1.0 4.0 0.00 0.00 0.00 85 1017.3
20230206072544 54 206 1.0 5.0 0.00 0.00 0.00 85 1017.4
20230206072020 55 206 1.0 6.0 0.00 0.00 0.00 84 1017.4
20230206071600 55 205 2.0 6.0 0.00 0.00 0.00 84 1017.4
20230206071019 56 207 2.0 6.0 0.00 0.00 0.00 83 1017.3
20230206070555 56 209 3.0 7.0 0.00 0.00 0.00 83 1017.4
20230206070021 56 202 3.0 6.0 0.00 0.00 0.00 83 1017.4
20230206065558 56 211 2.0 7.0 0.00 0.00 0.00 83 1017.4
20230206065019 56 165 2.0 7.0 0.00 0.00 0.00 83 1017.4
20230206064606 56 202 3.0 7.0 0.00 0.00 0.00 83 1017.3
20230206064019 56 204 3.0 7.0 0.00 0.00 0.00 83 1017.3
20230206063551 56 201 2.0 7.0 0.00 0.00 0.00 82 1017.5
20230206063015 56 189 3.0 8.0 0.00 0.00 0.00 82 1017.3
20230206062549 57 182 3.0 8.0 0.00 0.00 0.00 82 1017.3
20230206062007 57 171 4.0 7.0 0.00 0.00 0.00 82 1017.3
20230206061541 57 188 4.0 7.0 0.00 0.00 0.00 82 1017.4
20230206061021 57 188 3.0 7.0 0.00 0.00 0.00 82 1017.4
20230206060557 57 182 3.0 6.0 0.00 0.00 0.00 82 1017.3
20230206060049 57 196 3.0 6.0 0.00 0.00 0.00 81 1017.5
20230206055550 57 184 3.0 6.0 0.00 0.00 0.00 81 1017.5
20230206055033 57 191 3.0 8.0 0.00 0.00 0.00 81 1017.6
20230206054548 57 179 2.0 8.0 0.00 0.00 0.00 81 1017.6
20230206054033 56 171 3.0 7.0 0.00 0.00 0.00 81 1017.7
20230206053545 56 188 3.0 9.0 0.00 0.00 0.00 81 1017.7
20230206053025 56 184 3.0 7.0 0.00 0.00 0.00 81 1017.8
20230206052543 56 186 3.0 7.0 0.00 0.00 0.00 80 1017.8
20230206052020 56 164 3.0 10.0 0.00 0.00 0.00 80 1017.9
20230206051603 56 200 3.0 8.0 0.00 0.00 0.00 80 1017.9
20230206051017 56 197 3.0 6.0 0.00 0.00 0.00 81 1018.0
20230206050539 56 204 4.0 7.0 0.00 0.00 0.00 80 1018.0
20230206050032 56 166 4.0 6.0 0.00 0.00 0.00 80 1018.0
20230206045541 56 186 3.0 6.0 0.00 0.00 0.00 80 1018.0
20230206045016 56 190 3.0 6.0 0.00 0.00 0.00 80 1018.2
20230206044542 56 149 3.0 5.0 0.00 0.00 0.00 79 1018.1
20230206044054 56 168 3.0 7.0 0.00 0.00 0.00 79 1018.2
20230206043541 56 172 3.0 7.0 0.00 0.00 0.00 79 1018.2
20230206043057 56 192 3.0 7.0 0.00 0.00 0.00 78 1018.2
20230206042535 57 184 3.0 6.0 0.00 0.00 0.00 78 1018.1
20230206042051 57 177 3.0 6.0 0.00 0.00 0.00 78 1018.2
20230206041538 57 213 3.0 8.0 0.00 0.00 0.00 77 1018.2
20230206041054 57 190 3.0 8.0 0.00 0.00 0.00 77 1018.3
20230206040533 57 182 3.0 7.0 0.00 0.00 0.00 77 1018.3
20230206040051 57 188 2.0 7.0 0.00 0.00 0.00 77 1018.3
20230206035533 57 165 4.0 8.0 0.00 0.00 0.00 76 1018.2
20230206035049 57 165 4.0 9.0 0.00 0.00 0.00 76 1018.2
20230206034524 58 175 4.0 7.0 0.00 0.00 0.00 76 1018.2
20230206034044 58 184 4.0 10.0 0.00 0.00 0.00 76 1018.1
20230206033529 58 199 4.0 10.0 0.00 0.00 0.00 76 1018.3
20230206033045 58 167 3.0 8.0 0.00 0.00 0.00 75 1018.2
20230206032529 58 165 3.0 8.0 0.00 0.00 0.00 75 1018.4
20230206032046 58 170 4.0 8.0 0.00 0.00 0.00 75 1018.5
20230206031529 58 169 3.0 6.0 0.00 0.00 0.00 75 1018.5
20230206031048 58 167 3.0 8.0 0.00 0.00 0.00 74 1018.5
20230206030525 59 157 2.0 7.0 0.00 0.00 0.00 74 1018.6
20230206030056 59 163 3.0 7.0 0.00 0.00 0.00 73 1018.7
20230206025519 59 131 3.0 6.0 0.00 0.00 0.00 73 1018.8
20230206025038 59 163 3.0 9.0 0.00 0.00 0.00 73 1018.8
20230206024520 60 196 3.0 10.0 0.00 0.00 0.00 72 1018.8
20230206024036 60 163 4.0 10.0 0.00 0.00 0.00 72 1018.9
20230206023555 60 176 3.0 9.0 0.00 0.00 0.00 72 1018.9
20230206023031 60 163 3.0 9.0 0.00 0.00 0.00 72 1018.9
20230206022552 60 146 3.0 8.0 0.00 0.00 0.00 72 1018.8
20230206022024 60 178 3.0 6.0 0.00 0.00 0.00 72 1018.8
20230206021604 60 145 3.0 9.0 0.00 0.00 0.00 71 1018.8
20230206021024 60 140 4.0 9.0 0.00 0.00 0.00 71 1018.8
20230206020541 60 141 4.0 9.0 0.00 0.00 0.00 71 1018.8
20230206020101 60 141 3.0 9.0 0.00 0.00 0.00 69 1018.8
20230206020002 60 154 4.0 9.0 0.00 0.00 0.00 69 1018.8
20230206015540 60 153 3.0 8.0 0.00 0.00 0.00 69 1018.9
20230206015011 60 131 4.0 8.0 0.00 0.00 0.00 68 1018.9
20230206014548 60 165 4.0 8.0 0.00 0.00 0.00 66 1018.9
20230206014005 60 157 2.0 7.0 0.00 0.00 0.00 65 1018.9
20230206013544 60 153 3.0 9.0 0.00 0.00 0.00 64 1018.9
20230206013105 61 150 4.0 9.0 0.00 0.00 0.00 63 1019.0
20230206013002 61 154 4.0 9.0 0.00 0.00 0.00 63 1019.0
20230206012525 61 152 2.0 8.0 0.00 0.00 0.00 63 1019.0
20230206012004 61 157 3.0 8.0 0.00 0.00 0.00 62 1019.0
20230206011524 61 163 4.0 8.0 0.00 0.00 0.00 62 1018.9
20230206011100 61 145 3.0 8.0 0.00 0.00 0.00 62 1018.9
20230206010525 61 149 2.0 5.0 0.00 0.00 0.00 61 1019.0
20230206010107 61 147 1.0 4.0 0.00 0.00 0.00 61 1019.0
20230206005515 61 148 1.0 6.0 0.00 0.00 0.00 61 1019.1
20230206005032 62 149 2.0 6.0 0.00 0.00 0.00 60 1019.0
20230206004510 62 150 3.0 5.0 0.00 0.00 0.00 60 1019.0
20230206004027 62 155 2.0 5.0 0.00 0.00 0.00 59 1019.0
20230206003506 62 146 1.0 4.0 0.00 0.00 0.00 59 1019.0
20230206003028 63 146 2.0 6.0 0.00 0.00 0.00 58 1019.0
20230206002503 63 148 2.0 6.0 0.00 0.00 0.00 57 1019.0
20230206002033 64 160 3.0 6.0 0.00 0.00 0.00 57 1019.2
20230206001504 64 153 3.0 7.0 0.00 0.00 0.00 56 1019.1
20230206001022 64 146 3.0 7.0 0.00 0.00 0.00 56 1019.0
20230206000542 65 145 2.0 7.0 0.00 0.00 0.00 55 1019.0
20230206000026 65 181 4.0 9.0 0.00 0.00 0.00 55 1018.9
20230205235538 65 147 3.0 9.0 0.00 0.00 0.00 54 1018.8
20230205235019 66 141 3.0 8.0 0.00 0.00 0.00 54 1018.8
20230205234534 66 148 3.0 8.0 0.00 0.00 0.00 53 1018.8
20230205234010 66 157 2.0 8.0 0.00 0.00 0.00 53 1018.8
20230205233534 67 183 3.0 8.0 0.00 0.00 0.00 52 1018.9
20230205233050 67 164 3.0 6.0 0.00 0.00 0.00 52 1018.8
20230205232529 67 146 3.0 8.0 0.00 0.00 0.00 51 1018.9
20230205232047 68 166 3.0 8.0 0.00 0.00 0.00 50 1018.9
20230205231543 68 153 3.0 6.0 0.00 0.00 0.00 50 1018.9
20230205231046 68 155 3.0 6.0 0.00 0.00 0.00 50 1018.9
20230205230526 68 175 3.0 8.0 0.00 0.00 0.00 49 1019.0
20230205230041 68 175 3.0 8.0 0.00 0.00 0.00 48 1019.0
20230205225516 69 184 3.0 9.0 0.00 0.00 0.00 48 1019.0
20230205225038 69 153 3.0 9.0 0.00 0.00 0.00 48 1019.0
20230205224517 69 127 5.0 9.0 0.00 0.00 0.00 47 1019.0
20230205224032 69 226 4.0 11.0 0.00 0.00 0.00 47 1019.0
20230205223508 69 192 5.0 11.0 0.00 0.00 0.00 46 1019.0
20230205223047 69 182 3.0 10.0 0.00 0.00 0.00 47 1019.1
20230205222512 69 173 3.0 10.0 0.00 0.00 0.00 47 1019.2
20230205222045 69 157 4.0 8.0 0.00 0.00 0.00 47 1019.2
20230205221510 69 209 4.0 12.0 0.00 0.00 0.00 46 1019.2
20230205221046 69 146 5.0 9.0 0.00 0.00 0.00 47 1019.2
20230205220508 69 161 5.0 10.0 0.00 0.00 0.00 47 1019.2
20230205220057 68 144 5.0 10.0 0.00 0.00 0.00 47 1019.3
20230205215510 69 139 3.0 8.0 0.00 0.00 0.00 47 1019.4
20230205215043 69 182 4.0 10.0 0.00 0.00 0.00 47 1019.3
20230205214601 68 224 5.0 10.0 0.00 0.00 0.00 48 1019.3
20230205214502 68 188 6.0 10.0 0.00 0.00 0.00 48 1019.3
20230205214021 68 189 4.0 8.0 0.00 0.00 0.00 48 1019.3
20230205213555 68 150 4.0 8.0 0.00 0.00 0.00 49 1019.4
20230205213020 68 180 6.0 10.0 0.00 0.00 0.00 48 1019.5
20230205212556 68 132 4.0 10.0 0.00 0.00 0.00 49 1019.6
20230205212021 68 150 2.0 9.0 0.00 0.00 0.00 49 1019.8
20230205211610 68 188 5.0 9.0 0.00 0.00 0.00 49 1019.8
20230205211019 68 144 3.0 9.0 0.00 0.00 0.00 48 1019.8
20230205210553 68 150 4.0 8.0 0.00 0.00 0.00 49 1019.8
20230205210018 68 192 4.0 10.0 0.00 0.00 0.00 50 1019.7
20230205205535 68 137 4.0 10.0 0.00 0.00 0.00 50 1019.7
20230205205011 68 177 3.0 9.0 0.00 0.00 0.00 50 1019.8
20230205204557 67 186 4.0 10.0 0.00 0.00 0.00 49 1019.8
20230205204010 67 172 4.0 10.0 0.00 0.00 0.00 49 1020.0
20230205203529 67 153 5.0 8.0 0.00 0.00 0.00 51 1020.1
20230205203012 67 148 3.0 7.0 0.00 0.00 0.00 51 1020.0
20230205202542 66 188 3.0 7.0 0.00 0.00 0.00 51 1020.1
20230205202057 67 196 4.0 8.0 0.00 0.00 0.00 50 1020.1
20230205201534 66 171 2.0 7.0 0.00 0.00 0.00 52 1020.2
20230205201053 67 146 2.0 7.0 0.00 0.00 0.00 52 1020.1
20230205200513 66 166 3.0 8.0 0.00 0.00 0.00 53 1020.3
20230205200048 66 155 4.0 8.0 0.00 0.00 0.00 54 1020.5
20230205195524 65 153 3.0 11.0 0.00 0.00 0.00 54 1020.4
20230205195044 65 134 5.0 11.0 0.00 0.00 0.00 54 1020.6
20230205194538 65 167 5.0 9.0 0.00 0.00 0.00 55 1020.7
20230205194039 64 163 2.0 8.0 0.00 0.00 0.00 56 1020.7
20230205193519 65 138 3.0 8.0 0.00 0.00 0.00 55 1020.8
20230205193052 64 162 5.0 8.0 0.00 0.00 0.00 55 1020.8
20230205192515 64 169 3.0 9.0 0.00 0.00 0.00 56 1020.9
20230205192035 64 187 4.0 9.0 0.00 0.00 0.00 58 1021.1
20230205191517 63 207 3.0 8.0 0.00 0.00 0.00 57 1021.2
20230205191050 63 188 3.0 7.0 0.00 0.00 0.00 60 1021.1
20230205190511 63 190 2.0 7.0 0.00 0.00 0.00 60 1021.3
20230205190043 63 201 4.0 7.0 0.00 0.00 0.00 60 1021.4
20230205185559 62 154 3.0 7.0 0.00 0.00 0.00 61 1021.4
20230205185502 62 204 3.0 7.0 0.00 0.00 0.00 60 1021.4
20230205185041 62 195 2.0 8.0 0.00 0.00 0.00 60 1021.6
20230205184608 62 256 2.0 8.0 0.00 0.00 0.00 61 1021.6
20230205184035 61 237 0.0 6.0 0.00 0.00 0.00 61 1021.7
20230205183553 61 195 3.0 8.0 0.00 0.00 0.00 61 1021.7
20230205183040 61 157 3.0 8.0 0.00 0.00 0.00 62 1021.9
20230205182548 61 198 3.0 5.0 0.00 0.00 0.00 61 1021.9
20230205182023 60 190 3.0 6.0 0.00 0.00 0.00 63 1021.9
20230205181549 60 221 3.0 7.0 0.00 0.00 0.00 63 1022.1
20230205181023 60 144 3.0 7.0 0.00 0.00 0.00 64 1022.2
20230205180543 59 150 3.0 8.0 0.00 0.00 0.00 67 1022.4
20230205180025 59 187 2.0 8.0 0.00 0.00 0.00 66 1022.6
20230205175559 59 156 5.0 7.0 0.00 0.00 0.00 66 1022.6
20230205175040 58 183 1.0 7.0 0.00 0.00 0.00 67 1022.8
20230205174557 58 198 3.0 7.0 0.00 0.00 0.00 67 1022.9
20230205174037 59 234 2.0 5.0 0.00 0.00 0.00 67 1022.9
20230205173559 58 258 1.0 5.0 0.00 0.00 0.00 68 1023.0
20230205173033 58 259 2.0 5.0 0.00 0.00 0.00 69 1023.0
20230205172549 58 186 2.0 6.0 0.00 0.00 0.00 71 1022.9
20230205172030 57 225 1.0 6.0 0.00 0.00 0.00 71 1023.1
20230205171557 57 184 3.0 6.0 0.00 0.00 0.00 71 1023.1
20230205171030 57 214 1.0 6.0 0.00 0.00 0.00 72 1023.1
20230205170506 56 206 1.0 7.0 0.00 0.00 0.00 73 1023.1
20230205170027 56 250 2.0 7.0 0.00 0.00 0.00 73 1023.0